This demonstration page uses our WeatherBlox Daily Observations layout. Learn more.

41.55636, -103.73856

Hourly Observations for June 27, 2017

Temp ( °F °C ) Dew Point ( °F °C ) Humidity (%) Winds ( mph kmh ) Pressure ( in mb ) Visibility ( mi km ) Precip ( " mm )
12:53 am 00:53 Clear 62 16.7 49 9.4 62 62 ESE 13 20 29.92 1013 10 16.0934 0 0
1:53 am 01:53 Clear 64 17.8 54 12.2 70 70 SE 14 22 29.88 1012 10 16.0934 0 0
2:53 am 02:53 Clear 63 17.2 54 12.2 73 73 SE 13 20 29.87 1011 10 16.0934 0 0
3:53 am 03:53 Clear 63 17.2 54 12.2 73 73 SE 15 24 29.85 1011 10 16.0934 0 0
4:39 am 04:39 Mostly Cloudy 63 17.2 53 11.7 70 70 SE 16 26 29.83 1010 10 16.0934 0 0
4:53 am 04:53 Mostly Cloudy 63 17.2 54 12.2 73 73 SE 16 26 29.82 1010 10 16.0934 0 0
5:53 am 05:53 Cloudy 63 17.2 55 12.8 76 76 SSE 17 28 29.8 1009 10 16.0934 0 0
6:53 am 06:53 Cloudy 64 17.8 57 13.9 78 78 SE 15 24 29.79 1009 10 16.0934 0 0
7:53 am 07:53 Partly Cloudy 68 20 57 13.9 68 68 S 14 22 29.77 1008 10 16.0934 0 0
8:53 am 08:53 Sunny 73 22.8 57 13.9 57 57 S 14 22 29.72 1007 10 16.0934 0 0
9:53 am 09:53 Sunny 77 25 58 14.4 52 52 SSE 13 20 29.68 1005 10 16.0934 0 0
10:53 am 10:53 Sunny 82 27.8 58 14.4 44 44 SSE 9 15 29.62 1003 10 16.0934 0 0
11:53 am 11:53 Sunny 88 31.1 54 12.2 31 31 S 6 9 29.62 1003 10 16.0934 0 0
12:53 pm 12:53 Mostly Sunny 90 32.2 51 10.6 26 26 SW 7 11 29.6 1002 10 16.0934 0 0
1:53 pm 13:53 Sunny 95 35 39 3.9 14 14 SSE 5 7 29.54 1000 10 16.0934 0 0
2:28 pm 14:28 Sunny with Light Thunderstorms 88 31 50 10 27 27 SSW 12 19 29.38 995 10 16.0934 0 0
2:53 pm 14:53 Partly Cloudy with Light Thunderstorms 83 28.3 62 16.7 49 49 SSE 10 17 29.59 1002 10 16.0934 0.07 1.778
3:03 pm 15:03 Partly Cloudy with Nearby Thunderstorms 81 27.2 67 19.4 62 62 SE 5 7 29.41 996 10 16.0934 0 0.0254
3:15 pm 15:15 Mostly Sunny 82 27.8 63 17.2 53 53 S 17 28 29.44 997 10 16.0934 0 0.0254
3:53 pm 15:53 Mostly Sunny 85 29.4 51 10.6 31 31 Calm 29.57 1001 10 16.0934 0 0.0254
4:53 pm 16:53 Sunny 87 30.6 54 12.2 32 32 NE 9 15 29.52 1000 10 16.0934 0 0
5:53 pm 17:53 Sunny 87 30.6 51 10.6 29 29 NNE 6 9 29.53 1000 10 16.0934 0 0
6:53 pm 18:53 Sunny 82 27.8 58 14.4 44 44 ENE 8 13 29.58 1002 10 16.0934 0 0
7:11 pm 19:11 Sunny with Nearby Thunderstorms 81 27.2 53 11.7 38 38 SE 12 19 29.41 996 10 16.0934 0 0
7:23 pm 19:23 Very Windy with Storms Likely 75 23.9 48 8.9 39 39 W 49 80 29.53 1000 4 6.43736 0 0.0254
7:25 pm 19:25 Very Windy with Storms Likely 69 20.6 52 11.1 55 55 W 53 85 29.56 1001 1 1.60934 0 0.0254
7:28 pm 19:28 Mostly Cloudy with Heavy Thunderstorms 57 14 54 12 88 88 WNW 39 63 29.68 1005 0.5 0.80467 0 0
7:38 pm 19:38 Cloudy with Thunderstorms 66 18.9 57 13.9 73 73 NNW 35 56 29.62 1003 1 1.60934 0.4 10.16
7:41 pm 19:41 Windy with Storms Likely 67 19.4 58 14.4 73 73 NNW 33 54 29.59 1002 4 6.43736 0.41 10.414
7:53 pm 19:53 Windy with Storms Likely 69 20.6 58 14.4 68 68 NNW 25 41 29.65 1004 10 16.0934 0.41 10.414
8:13 pm 20:13 Mostly Sunny 72 22.2 51 10.6 48 48 NW 22 35 29.59 1002 10 16.0934 0 0.0254
8:53 pm 20:53 Clear 72 22.2 49 9.4 44 44 N 10 17 29.61 1003 10 16.0934 0 0.0254
9:53 pm 21:53 Clear 65 18.3 52 11.1 63 63 WNW 7 11 29.68 1005 10 16.0934 0 0
10:53 pm 22:53 Clear 61 16.1 52 11.1 72 72 NW 8 13 29.68 1005 10 16.0934 0 0
11:53 pm 23:53 Clear 58 14.4 52 11.1 81 81 WNW 6 9 29.69 1005 10 16.0934 0 0

Powered by AerisWeather